| time (UTC) | temp C | wind direction | speed KPH | gust KPH | rain 1hr cm | rain 24hr cm | rain mn cm | humidity % | barometer mb |
| 20260505002629 | 22 | 181 | 4.8 | 14.5 | 0.00 | 0.00 | 0.00 | 26 | 1005.6 |
| 20260505001629 | 22 | 134 | 4.8 | 14.5 | 0.00 | 0.00 | 0.00 | 26 | 1005.7 |
| 20260505000623 | 22 | 176 | 11.3 | 20.9 | 0.00 | 0.00 | 0.00 | 27 | 1005.8 |
| 20260504235623 | 22 | 161 | 9.7 | 16.1 | 0.00 | 0.00 | 0.00 | 28 | 1005.9 |
| 20260504234626 | 22 | 94 | 12.9 | 22.5 | 0.00 | 0.00 | 0.00 | 27 | 1005.8 |
| 20260504233626 | 22 | 138 | 11.3 | 25.7 | 0.00 | 0.00 | 0.00 | 29 | 1005.8 |
| 20260504232624 | 21 | 178 | 12.9 | 25.7 | 0.00 | 0.00 | 0.00 | 30 | 1005.9 |
| 20260504231620 | 21 | 96 | 17.7 | 25.7 | 0.00 | 0.00 | 0.00 | 29 | 1006.2 |
| 20260504230641 | 22 | 70 | 22.5 | 40.2 | 0.00 | 0.00 | 0.00 | 28 | 1006.1 |
| 20260504225639 | 23 | 136 | 20.9 | 30.6 | 0.00 | 0.00 | 0.00 | 27 | 1006.3 |
| 20260504224617 | 23 | 216 | 8.0 | 19.3 | 0.00 | 0.00 | 0.00 | 23 | 1006.0 |
| 20260504223617 | 23 | 268 | 12.9 | 24.1 | 0.00 | 0.00 | 0.00 | 26 | 1005.9 |
| 20260504222618 | 23 | 238 | 16.1 | 25.7 | 0.00 | 0.00 | 0.00 | 28 | 1006.0 |
| 20260504221622 | 23 | 248 | 14.5 | 30.6 | 0.00 | 0.00 | 0.00 | 28 | 1005.9 |
| 20260504220622 | 23 | 259 | 14.5 | 24.1 | 0.00 | 0.00 | 0.00 | 26 | 1005.9 |
| 20260504215623 | 23 | 316 | 8.0 | 16.1 | 0.00 | 0.00 | 0.00 | 23 | 1005.8 |
| 20260504214620 | 23 | 285 | 12.9 | 24.1 | 0.00 | 0.00 | 0.00 | 24 | 1005.9 |
| 20260504213639 | 24 | 268 | 3.2 | 16.1 | 0.00 | 0.00 | 0.00 | 23 | 1006.1 |
| 20260504212622 | 24 | 249 | 6.4 | 17.7 | 0.00 | 0.00 | 0.00 | 23 | 1006.2 |
| 20260504211621 | 23 | 209 | 6.4 | 19.3 | 0.00 | 0.00 | 0.00 | 23 | 1006.4 |
| 20260504210621 | 24 | 248 | 8.0 | 16.1 | 0.00 | 0.00 | 0.00 | 24 | 1006.4 |
| 20260504205621 | 23 | 213 | 4.8 | 11.3 | 0.00 | 0.00 | 0.00 | 25 | 1006.5 |
| 20260504204640 | 23 | 229 | 6.4 | 14.5 | 0.00 | 0.00 | 0.00 | 23 | 1006.5 |
| 20260504203625 | 23 | 280 | 8.0 | 17.7 | 0.00 | 0.00 | 0.00 | 25 | 1006.8 |
| 20260504202625 | 23 | 57 | 1.6 | 12.9 | 0.00 | 0.00 | 0.00 | 24 | 1006.8 |
| 20260504201626 | 23 | 277 | 4.8 | 17.7 | 0.00 | 0.00 | 0.00 | 26 | 1006.9 |
| 20260504200624 | 23 | 284 | 8.0 | 14.5 | 0.00 | 0.00 | 0.00 | 25 | 1007.0 |
| 20260504195623 | 23 | 19 | 0.0 | 12.9 | 0.00 | 0.00 | 0.00 | 26 | 1007.1 |
| 20260504194627 | 23 | 316 | 8.0 | 17.7 | 0.00 | 0.00 | 0.00 | 26 | 1007.3 |
| 20260504193626 | 23 | 272 | 4.8 | 14.5 | 0.00 | 0.00 | 0.00 | 26 | 1007.4 |
| 20260504192624 | 23 | 284 | 4.8 | 11.3 | 0.00 | 0.00 | 0.00 | 26 | 1007.4 |
| 20260504191624 | 23 | 344 | 8.0 | 14.5 | 0.00 | 0.00 | 0.00 | 25 | 1007.5 |
| 20260504190630 | 23 | 317 | 1.6 | 12.9 | 0.00 | 0.00 | 0.00 | 25 | 1007.7 |
| 20260504185632 | 22 | 13 | 8.0 | 14.5 | 0.00 | 0.00 | 0.00 | 26 | 1007.9 |
| 20260504184631 | 22 | 350 | 11.3 | 19.3 | 0.00 | 0.00 | 0.00 | 26 | 1007.9 |
| 20260504183631 | 22 | 26 | 9.7 | 17.7 | 0.00 | 0.00 | 0.00 | 26 | 1007.9 |
| 20260504182632 | 22 | 313 | 4.8 | 12.9 | 0.00 | 0.00 | 0.00 | 28 | 1008.2 |
| 20260504181635 | 22 | 284 | 8.0 | 14.5 | 0.00 | 0.00 | 0.00 | 28 | 1008.3 |
| 20260504180645 | 22 | 273 | 8.0 | 14.5 | 0.00 | 0.00 | 0.00 | 27 | 1008.4 |
| 20260504175646 | 22 | 206 | 4.8 | 14.5 | 0.00 | 0.00 | 0.00 | 26 | 1008.5 |
| 20260504174623 | 22 | 286 | 6.4 | 12.9 | 0.00 | 0.00 | 0.00 | 29 | 1008.6 |
| 20260504173621 | 21 | 245 | 4.8 | 12.9 | 0.00 | 0.00 | 0.00 | 28 | 1008.7 |
| 20260504172621 | 21 | 263 | 1.6 | 9.7 | 0.00 | 0.00 | 0.00 | 29 | 1008.7 |
| 20260504171625 | 21 | 254 | 8.0 | 12.9 | 0.00 | 0.00 | 0.00 | 29 | 1008.9 |
| 20260504170624 | 21 | 286 | 8.0 | 12.9 | 0.00 | 0.00 | 0.00 | 31 | 1008.9 |
| 20260504150648 | 18 | 301 | 3.2 | 6.4 | 0.00 | 0.00 | 0.00 | 40 | 1009.4 |
| 20260504140630 | 17 | 355 | 3.2 | 4.8 | 0.00 | 0.00 | 0.00 | 44 | 1009.6 |
| 20260504130633 | 16 | 157 | 6.4 | 12.9 | 0.00 | 0.00 | 0.00 | 39 | 1009.5 |
| 20260504110632 | 14 | 86 | 3.2 | 6.4 | 0.00 | 0.00 | 0.00 | 40 | 1009.4 |
| 20260504081628 | 13 | 107 | 0.0 | 3.2 | 0.00 | 0.00 | 0.00 | 44 | 1008.2 |
| 20260504080630 | 13 | 107 | 0.0 | 4.8 | 0.00 | 0.00 | 0.00 | 41 | 1008.3 |